Precipitable_Water
2.11 2.18 2.24 1.87 1.21 1.07 0.83 0.76 0.85 0.70 0.74 0.88 0.89 0.94 1.01 1.01 0.88 0.67 1.42 1.63 1.68 1.71 1.83 1.86 1.90 1.76 1.66 1.58 1.77 1.91 1.88 1.89 1.93 1.91 1.94 1.92 2.02 1.99 1.99 1.92 1.84 1.83 1.70 1.75 1.76 1.74 1.80 1.75 1.86
2.25 2.28 2.06 1.56 1.04 0.78 0.76 0.85 0.71 0.79 0.89 0.91 1.14 1.10 1.05 1.02 1.24 1.18 1.35 1.64 1.71 1.71 1.78 1.83 1.85 1.78 1.64 1.58 1.67 1.86 1.91 1.90 1.88 1.91 1.90 1.92 1.93 1.90 1.93 1.88 1.82 1.77 1.73 1.76 1.75 1.65 1.63 1.67 1.69
2.22 2.21 1.61 1.25 1.04 0.76 0.69 0.83 0.79 0.94 1.00 1.14 1.14 1.28 1.17 1.10 1.22 1.31 1.56 1.66 1.68 1.64 1.71 1.75 1.80 1.76 1.67 1.63 1.68 1.77 1.85 1.81 1.84 1.95 1.98 2.00 1.93 1.87 1.86 1.80 1.81 1.76 1.80 1.85 1.83 1.72 1.68 1.66 1.63
2.06 1.83 1.66 1.11 0.91 0.95 0.89 0.91 0.94 0.92 1.16 1.31 1.25 1.09 1.34 1.40 1.32 1.48 1.62 1.66 1.61 1.62 1.71 1.77 1.71 1.68 1.57 1.54 1.69 1.77 1.77 1.76 1.84 1.87 2.06 2.06 1.97 1.94 1.88 1.78 1.73 1.86 1.95 1.96 1.90 1.83 1.63 1.61 1.62
2.13 1.68 1.18 1.01 0.93 1.01 1.04 1.06 1.02 0.91 1.02 1.17 1.24 1.06 1.00 1.37 1.56 1.57 1.60 1.63 1.56 1.65 1.70 1.81 1.69 1.76 1.64 1.48 1.47 1.63 1.70 1.74 1.83 1.91 2.00 2.05 1.97 1.79 1.73 1.73 1.74 1.82 1.84 1.87 1.87 1.77 1.67 1.64 1.66
1.59 1.56 1.11 0.97 0.96 1.07 1.13 1.18 1.01 1.02 1.10 1.14 1.14 1.00 1.04 1.47 1.44 1.56 1.62 1.60 1.66 1.54 1.80 1.95 1.94 1.86 1.85 1.54 1.54 1.52 1.61 1.66 1.75 1.84 2.02 2.08 2.04 1.93 1.71 1.66 1.68 1.71 1.69 1.76 1.84 1.70 1.62 1.59 1.55
1.52 1.36 1.17 1.13 1.03 1.03 1.19 1.35 1.13 1.07 1.04 1.03 1.20 0.89 1.14 1.28 1.49 1.59 1.60 1.61 1.60 1.63 1.80 1.87 1.87 1.78 1.82 1.65 1.73 1.63 1.55 1.69 1.80 1.83 1.93 2.01 2.01 1.97 1.78 1.70 1.65 1.67 1.67 1.71 1.81 1.75 1.58 1.51 1.51
1.57 1.44 1.23 1.26 1.08 1.01 1.29 1.40 1.45 1.16 1.03 1.24 1.20 0.86 0.90 1.24 1.47 1.53 1.53 1.56 1.60 1.66 1.71 1.77 1.83 1.82 1.82 1.65 1.75 1.70 1.63 1.55 1.84 1.75 1.81 1.85 1.97 1.96 1.79 1.70 1.60 1.62 1.61 1.64 1.68 1.69 1.64 1.59 1.53
1.62 1.22 1.17 1.20 1.15 1.18 1.41 1.36 1.53 1.39 1.06 1.06 1.12 1.06 1.16 1.37 1.42 1.35 1.40 1.52 1.53 1.62 1.69 1.79 1.76 1.80 1.77 1.79 1.83 1.86 1.90 1.85 1.66 1.81 1.77 1.84 2.00 1.87 1.74 1.65 1.55 1.55 1.59 1.61 1.65 1.62 1.63 1.56 1.55
1.28 1.13 1.23 1.37 1.45 1.30 1.39 1.39 1.32 1.13 0.99 0.96 1.01 1.14 1.26 1.33 1.23 1.17 1.27 1.34 1.43 1.47 1.57 1.70 1.70 1.76 1.75 1.83 1.80 1.74 1.77 1.87 1.70 1.82 1.74 1.82 1.79 1.70 1.63 1.58 1.56 1.59 1.63 1.64 1.62 1.57 1.56 1.53 1.49
1.26 1.13 1.39 1.38 1.43 1.48 1.42 1.39 1.42 1.25 0.93 0.91 0.83 0.96 1.16 1.16 1.13 1.19 1.27 1.36 1.47 1.49 1.58 1.61 1.66 1.77 1.79 1.76 1.74 1.65 1.64 1.68 1.73 1.69 1.70 1.71 1.66 1.67 1.65 1.68 1.70 1.68 1.67 1.64 1.59 1.55 1.53 1.51 1.55
1.07 1.27 1.38 1.45 1.56 1.50 1.34 1.46 1.35 1.32 1.18 1.02 1.02 1.06 1.12 1.12 1.10 1.19 1.27 1.37 1.51 1.52 1.55 1.65 1.63 1.73 1.75 1.74 1.64 1.47 1.36 1.43 1.59 1.57 1.69 1.59 1.69 1.75 1.73 1.73 1.70 1.65 1.71 1.66 1.58 1.50 1.49 1.48 1.52
1.04 1.12 1.30 1.44 1.54 1.54 1.57 1.41 1.45 1.43 1.41 1.11 1.15 1.16 1.16 1.17 1.16 1.28 1.34 1.40 1.54 1.54 1.55 1.66 1.65 1.65 1.70 1.73 1.50 1.43 1.40 1.34 1.48 1.57 1.56 1.64 1.71 1.73 1.81 1.78 1.72 1.66 1.67 1.64 1.52 1.46 1.46 1.42 1.43
0.98 1.10 1.22 1.45 1.50 1.59 1.47 1.47 1.50 1.52 1.47 1.20 1.17 1.14 1.21 1.20 1.20 1.29 1.39 1.42 1.49 1.57 1.56 1.72 1.74 1.68 1.65 1.65 1.55 1.42 1.45 1.45 1.50 1.52 1.55 1.66 1.69 1.69 1.73 1.73 1.69 1.67 1.62 1.62 1.54 1.44 1.46 1.41 1.43
1.05 0.93 1.17 1.34 1.47 1.53 1.60 1.37 1.34 1.55 1.44 1.21 1.22 1.28 1.29 1.31 1.29 1.30 1.42 1.45 1.54 1.58 1.63 1.74 1.77 1.75 1.67 1.68 1.56 1.51 1.53 1.48 1.45 1.49 1.61 1.62 1.69 1.70 1.69 1.72 1.70 1.62 1.63 1.57 1.46 1.47 1.55 1.50 1.50
0.94 1.03 0.86 1.26 1.40 1.54 1.49 1.06 1.41 1.58 1.47 1.40 1.25 1.26 1.30 1.33 1.33 1.41 1.48 1.48 1.60 1.65 1.70 1.84 1.88 1.76 1.76 1.81 1.65 1.53 1.64 1.59 1.45 1.52 1.57 1.62 1.71 1.75 1.74 1.74 1.69 1.63 1.59 1.51 1.45 1.49 1.50 1.47 1.52
0.84 0.74 0.86 1.05 1.36 1.39 1.35 1.16 1.46 1.61 1.52 1.40 1.44 1.33 1.27 1.29 1.37 1.44 1.50 1.53 1.61 1.68 1.76 1.85 1.88 1.90 1.81 1.81 1.73 1.67 1.64 1.60 1.62 1.58 1.58 1.67 1.71 1.70 1.77 1.68 1.66 1.67 1.60 1.49 1.46 1.52 1.52 1.44 1.50
0.65 0.68 0.80 0.91 1.19 1.30 1.22 1.18 1.40 1.53 1.53 1.44 1.48 1.45 1.21 1.25 1.27 1.42 1.50 1.55 1.60 1.64 1.78 1.85 1.88 1.82 1.87 1.85 1.75 1.69 1.66 1.65 1.70 1.63 1.55 1.60 1.66 1.70 1.73 1.70 1.69 1.66 1.54 1.44 1.47 1.50 1.53 1.49 1.50
0.70 0.60 0.66 0.93 1.19 1.12 1.11 1.18 1.28 1.46 1.51 1.48 1.40 1.39 1.29 1.30 1.42 1.47 1.51 1.56 1.58 1.58 1.65 1.81 1.83 1.90 1.75 1.77 1.70 1.69 1.57 1.66 1.66 1.67 1.69 1.62 1.62 1.71 1.75 1.69 1.67 1.68 1.52 1.43 1.47 1.50 1.45 1.46 1.57
0.57 0.55 0.75 0.96 1.11 1.07 1.06 1.11 1.29 1.36 1.38 1.39 1.48 1.42 1.44 1.41 1.39 1.43 1.46 1.53 1.52 1.47 1.50 1.62 1.79 1.86 1.83 1.73 1.74 1.72 1.72 1.73 1.73 1.70 1.70 1.62 1.59 1.68 1.68 1.64 1.60 1.58 1.54 1.44 1.45 1.45 1.41 1.49 1.57
0.55 0.54 0.71 0.79 1.01 1.12 1.05 1.05 1.21 1.38 1.45 1.46 1.57 1.52 1.48 1.36 1.42 1.39 1.44 1.45 1.49 1.43 1.40 1.45 1.65 1.76 1.85 1.82 1.76 1.75 1.71 1.68 1.62 1.65 1.60 1.64 1.60 1.60 1.66 1.66 1.65 1.60 1.56 1.41 1.44 1.51 1.50 1.41 1.54
0.47 0.57 0.61 0.66 0.71 0.63 1.01 0.67 0.97 1.23 1.32 1.38 1.46 1.51 1.39 1.42 1.48 1.52 1.48 1.41 1.39 1.43 1.45 1.41 1.54 1.66 1.89 1.95 1.74 1.65 1.56 1.49 1.59 1.59 1.68 1.62 1.63 1.57 1.56 1.61 1.58 1.55 1.53 1.45 1.49 1.58 1.59 1.58 1.43
0.45 0.55 0.56 0.61 0.55 0.58 0.71 0.62 0.79 1.10 1.12 1.23 1.36 1.47 1.46 1.53 1.54 1.46 1.46 1.47 1.49 1.51 1.44 1.43 1.51 1.58 1.76 1.94 1.89 1.75 1.67 1.70 1.67 1.66 1.67 1.64 1.65 1.59 1.54 1.54 1.58 1.54 1.53 1.51 1.53 1.53 1.59 1.65 1.55
0.59 0.55 0.59 0.61 0.55 0.40 0.58 0.60 0.64 0.85 1.00 1.18 1.36 1.46 1.47 1.52 1.50 1.57 1.63 1.52 1.50 1.53 1.49 1.44 1.46 1.49 1.67 1.83 1.96 1.87 1.82 1.77 1.66 1.55 1.49 1.52 1.58 1.63 1.56 1.55 1.61 1.65 1.59 1.49 1.61 1.57 1.61 1.64 1.65
0.53 0.45 0.40 0.40 0.40 0.39 0.58 0.55 0.63 0.92 1.09 1.20 1.27 1.39 1.52 1.49 1.44 1.43 1.50 1.44 1.46 1.50 1.49 1.43 1.47 1.44 1.52 1.67 1.81 1.98 1.87 1.78 1.65 1.55 1.50 1.49 1.51 1.55 1.67 1.63 1.54 1.66 1.63 1.53 1.58 1.59 1.55 1.62 1.60
0.35 0.39 0.33 0.29 0.35 0.40 0.64 0.48 0.59 0.96 1.12 1.20 1.35 1.44 1.57 1.58 1.45 1.39 1.45 1.41 1.50 1.51 1.50 1.50 1.43 1.46 1.48 1.57 1.65 1.80 1.95 1.93 1.77 1.70 1.65 1.54 1.50 1.63 1.65 1.57 1.63 1.62 1.64 1.52 1.52 1.57 1.56 1.56 1.58
0.36 0.30 0.46 0.43 0.47 0.41 0.53 0.63 0.78 0.93 1.04 1.12 1.25 1.36 1.46 1.55 1.48 1.40 1.50 1.47 1.58 1.51 1.54 1.50 1.43 1.48 1.51 1.51 1.63 1.67 1.85 1.89 1.83 1.83 1.75 1.67 1.58 1.54 1.56 1.69 1.60 1.61 1.56 1.49 1.47 1.54 1.52 1.51 1.47
0.38 0.40 0.30 0.44 0.32 0.29 0.44 0.49 0.48 0.70 0.87 1.07 1.15 1.24 1.40 1.49 1.55 1.56 1.55 1.53 1.54 1.55 1.58 1.57 1.50 1.49 1.56 1.56 1.58 1.68 1.81 1.93 1.91 1.86 1.75 1.66 1.67 1.66 1.58 1.56 1.66 1.66 1.59 1.61 1.54 1.49 1.52 1.45 1.45
0.34 0.34 0.36 0.41 0.38 0.30 0.33 0.41 0.72 0.79 0.92 1.03 1.17 1.30 1.36 1.42 1.49 1.56 1.57 1.59 1.58 1.61 1.64 1.57 1.56 1.53 1.56 1.61 1.57 1.63 1.80 1.90 1.93 1.94 1.92 1.84 1.74 1.74 1.68 1.65 1.65 1.65 1.61 1.58 1.46 1.40 1.44 1.40 1.38
0.40 0.36 0.38 0.31 0.30 0.36 0.38 0.37 0.77 0.90 0.98 1.11 1.22 1.37 1.40 1.45 1.45 1.54 1.65 1.70 1.65 1.65 1.69 1.69 1.72 1.61 1.66 1.68 1.67 1.59 1.74 1.95 1.89 1.98 2.00 2.01 1.93 1.93 1.85 1.83 1.80 1.75 1.76 1.70 1.60 1.44 1.41 1.34 1.29
Wind_Speed
2 3 2 3 4 6 7 8 11 17 13 11 15 9 9 10 7 8 14 11 13 12 11 11 10 11 12 13 14 15 16 16 16 16 16 16 16 16 16 17 18 18 18 18 18 17 17 17 16
2 1 4 5 5 8 7 10 16 15 14 17 11 12 9 8 9 14 13 13 13 12 11 11 11 11 11 12 13 14 15 15 16 16 16 16 16 16 17 18 18 18 18 18 17 17 16 16 15
1 1 6 6 7 8 10 11 16 15 17 11 10 10 8 8 13 14 14 14 13 12 12 11 11 11 11 12 12 13 14 14 15 15 16 16 16 16 17 17 18 18 18 17 16 16 15 15 15
3 5 8 7 9 9 10 15 17 18 13 8 12 10 8 11 14 13 15 14 13 12 11 11 11 11 11 11 12 13 13 13 14 14 15 15 16 16 16 17 18 17 17 16 15 14 13 13 12
4 13 8 9 10 9 13 15 14 15 11 9 7 8 12 11 12 16 15 14 13 12 11 11 11 11 12 12 12 13 13 13 13 14 14 15 15 16 16 16 16 16 15 15 15 14 14 14 13
8 12 9 9 13 13 13 12 14 11 10 9 10 12 11 12 15 14 14 13 13 12 11 11 12 12 13 13 13 13 13 13 13 13 13 13 14 15 15 15 15 15 14 14 14 13 13 13 13
9 8 9 9 14 12 10 11 9 9 10 7 11 10 10 14 14 14 14 13 12 12 12 12 12 13 13 13 13 13 13 13 13 13 12 12 13 13 14 14 14 14 14 14 14 14 14 13 12
7 6 8 8 12 10 9 9 9 8 7 8 11 9 11 14 14 14 13 12 12 12 12 12 13 13 13 13 12 12 12 13 13 12 12 12 13 14 14 14 14 13 13 13 13 13 13 13 12
4 5 8 9 10 9 10 9 7 8 11 8 8 12 15 16 15 14 13 12 12 12 12 12 13 13 13 12 12 12 12 13 13 13 13 13 13 13 13 13 13 13 13 12 12 13 13 13 14
3 4 10 13 10 8 9 10 9 9 9 9 11 15 17 16 15 14 12 12 12 11 11 12 12 13 13 12 12 11 12 12 13 13 13 13 13 12 13 13 13 13 12 12 12 12 12 13 14
6 8 9 11 8 8 9 10 8 11 8 9 16 18 17 16 14 13 11 11 11 12 11 11 12 12 12 12 12 11 12 12 13 14 14 13 13 13 13 13 12 12 11 11 11 11 12 12 13
7 7 9 7 8 9 9 9 9 9 5 13 17 18 17 15 14 13 11 11 11 12 11 11 12 12 12 12 11 12 12 13 14 14 14 14 14 13 13 12 11 10 11 11 11 12 12 13 13
8 6 7 5 7 10 9 10 9 8 10 16 17 17 16 14 13 12 11 11 11 12 11 11 12 12 12 11 12 12 13 14 15 15 14 14 13 12 11 10 10 10 11 11 11 12 13 13 14
9 8 6 4 8 10 10 9 8 9 15 17 17 17 15 13 13 12 11 11 11 11 11 12 11 12 12 12 12 12 13 13 14 14 14 13 12 11 10 10 10 10 11 11 11 12 12 13 14
11 9 7 7 8 8 10 10 12 13 16 18 17 15 14 13 13 12 11 10 10 11 11 13 12 11 11 11 12 12 12 12 13 13 14 12 11 10 9 9 9 10 10 10 11 12 12 13 13
11 10 9 9 9 9 9 11 14 13 16 17 17 15 14 14 12 11 11 10 11 11 12 13 12 11 11 11 11 12 11 12 12 13 12 11 10 9 9 9 10 10 11 11 11 12 12 12 12
11 11 9 10 8 10 7 6 15 15 15 19 17 15 15 14 13 12 11 11 11 11 11 12 11 11 11 11 11 11 11 11 11 11 11 10 10 9 9 9 11 11 11 11 11 11 11 11 11
14 11 10 9 12 12 10 5 12 17 17 17 16 17 16 15 14 13 12 11 10 11 11 12 11 11 12 11 11 11 11 10 10 10 10 10 10 9 10 10 12 11 11 11 11 11 11 10 10
13 11 11 10 12 11 8 8 12 16 19 17 15 17 17 17 14 14 13 12 11 11 11 11 11 11 12 11 10 10 10 10 9 10 10 10 10 10 10 11 11 10 10 10 10 10 9 10 10
13 12 10 10 11 10 11 11 13 15 18 19 19 17 16 16 16 15 15 13 12 11 11 12 11 10 11 11 10 10 10 10 9 10 10 10 11 10 10 11 10 10 10 10 9 9 8 9 9
16 14 12 10 12 10 13 10 13 16 14 16 18 18 16 16 18 17 16 15 14 13 12 12 12 11 11 11 11 10 10 10 9 10 10 10 10 10 10 10 10 9 10 9 9 8 8 8 9
18 17 14 13 13 10 10 9 12 16 18 18 19 19 20 17 18 19 18 17 16 14 13 13 12 12 12 11 11 11 11 10 9 9 10 10 10 10 10 10 9 9 10 9 9 8 8 8 8
16 16 17 14 12 13 13 10 9 15 17 18 21 23 22 19 17 20 21 19 17 15 15 14 13 13 13 12 11 11 10 9 8 9 10 10 10 11 11 11 10 9 9 9 9 8 8 8 8
18 17 13 12 13 14 15 15 11 14 18 19 21 23 24 21 18 19 21 20 19 17 16 16 15 14 14 13 12 11 10 9 8 9 10 10 10 11 11 11 11 10 9 10 10 9 8 8 7
18 21 16 15 16 14 13 16 13 13 11 18 20 23 25 22 18 22 22 22 20 19 18 17 16 15 14 14 12 12 10 9 9 9 9 10 10 11 11 11 12 10 9 10 11 10 9 8 7
23 22 19 21 16 15 13 16 14 14 16 14 18 21 23 25 19 20 23 23 22 21 19 18 18 17 16 14 14 13 11 10 10 10 9 9 11 11 11 11 12 11 10 10 11 11 10 9 9
19 22 17 14 14 15 15 15 15 14 15 15 18 20 23 22 21 21 22 24 23 22 21 20 19 18 18 16 15 14 13 12 11 11 10 10 10 11 11 11 12 11 11 11 12 12 11 11 11
19 17 20 17 17 17 15 15 13 13 15 16 19 20 23 23 21 23 22 23 23 23 22 21 21 20 19 18 17 15 15 14 13 13 11 12 11 11 11 11 12 11 11 11 12 12 12 12 12
17 17 17 18 17 19 14 14 12 14 14 17 19 20 21 19 22 23 20 23 22 23 24 23 22 22 21 20 19 17 17 15 14 13 13 13 12 12 12 11 11 12 12 12 12 12 12 12 13
16 16 18 19 19 17 16 16 13 14 13 16 18 18 19 19 19 20 20 23 23 24 23 25 24 23 23 22 20 19 18 17 16 15 13 15 14 13 13 12 12 13 13 13 13 13 12 13 13
Wind_Direction
78 89 113 113 127 124 104 108 116 124 124 121 126 110 99 82 84 100 124 121 123 123 121 121 119 116 112 111 109 111 104 102 102 101 101 101 102 105 108 108 108 107 107 107 106 105 104 102 101
81 25 141 123 120 120 108 117 127 126 124 125 109 113 94 77 90 116 119 124 122 121 119 119 120 120 118 116 116 117 111 105 104 102 102 102 100 106 105 106 106 105 106 107 105 105 105 102 100
35 65 148 125 125 115 117 125 132 125 124 116 104 97 92 83 112 117 121 122 120 118 117 117 119 121 121 119 120 124 119 110 108 106 104 101 99 100 105 107 107 107 107 106 105 105 104 101 100
271 162 139 128 118 117 122 132 131 132 132 102 111 90 91 109 115 118 122 121 117 117 115 116 120 123 126 126 125 127 125 118 113 109 105 101 98 98 103 105 108 106 106 104 105 103 102 103 103
32 160 146 132 115 116 127 134 136 138 137 117 107 96 109 114 116 122 120 119 117 114 112 113 117 120 123 127 129 131 128 125 119 114 109 105 99 98 102 108 109 108 105 101 99 100 99 101 97
114 140 140 128 122 121 122 128 135 133 131 124 107 111 112 120 125 124 121 118 116 112 110 110 114 117 120 121 125 131 132 129 125 121 115 109 103 102 102 106 109 109 105 102 98 97 100 99 97
139 130 138 131 134 127 132 131 132 131 128 123 127 118 121 129 130 127 123 119 115 113 108 109 113 117 118 120 121 127 132 133 129 125 120 114 108 105 103 107 110 109 105 102 99 96 96 96 96
151 149 146 140 151 138 142 137 129 130 122 133 136 135 137 137 134 130 125 121 118 114 110 110 113 117 119 119 120 126 131 138 135 130 123 118 113 109 106 107 110 111 108 104 98 97 94 92 94
134 181 171 164 149 145 147 151 135 130 132 132 138 143 138 137 135 132 127 125 123 119 113 111 112 117 118 118 119 126 129 133 138 132 127 124 118 113 109 108 111 111 109 104 100 98 95 92 92
161 119 147 170 160 146 155 142 146 139 135 131 129 134 140 140 139 137 133 131 130 127 120 116 116 117 118 115 116 122 132 133 137 134 131 126 121 117 114 110 110 109 107 105 101 97 96 95 95
152 138 138 163 168 160 151 152 154 143 141 157 149 145 145 145 143 141 136 134 131 132 128 122 121 120 118 115 112 116 128 135 137 137 133 128 124 119 117 112 111 108 106 106 102 98 100 100 100
157 159 159 152 172 175 166 161 144 138 148 145 146 146 146 147 147 145 141 138 134 136 133 129 124 122 119 117 112 113 121 134 137 138 135 131 126 121 117 114 109 110 107 107 102 102 101 102 104
184 172 178 175 174 172 165 159 155 157 141 144 145 146 146 146 147 146 143 140 139 139 137 137 130 125 124 119 114 113 117 127 136 139 138 135 129 125 120 114 110 110 109 108 105 106 103 104 106
190 186 172 186 181 172 161 167 175 184 155 151 150 151 149 146 147 146 144 142 143 144 144 140 136 131 128 122 119 117 117 124 132 139 142 140 134 129 124 119 116 111 115 111 111 111 108 109 108
181 176 165 156 154 162 157 163 169 162 162 161 161 159 157 153 148 147 145 143 144 146 145 145 141 137 134 128 125 123 120 124 131 137 143 144 140 135 130 130 124 121 122 116 116 117 114 113 111
192 190 187 185 168 165 170 184 182 166 170 172 169 168 165 164 157 152 149 144 142 140 144 149 144 140 140 137 134 130 125 126 131 137 141 144 146 142 136 133 135 126 124 120 120 120 119 118 115
198 197 190 184 195 176 182 151 187 183 177 181 178 181 178 172 169 163 158 153 148 148 144 151 150 149 147 141 141 138 133 133 133 141 143 142 143 142 140 135 138 134 129 125 123 125 123 121 117
195 194 199 189 188 188 192 171 173 188 186 183 188 186 185 183 179 172 168 164 157 154 155 154 151 148 154 149 145 145 143 139 138 144 149 148 147 141 142 136 138 135 134 131 129 130 127 125 123
193 193 197 198 194 193 199 183 178 181 189 190 187 185 191 194 188 182 178 174 169 164 163 164 162 158 153 152 155 155 155 150 141 143 147 150 150 146 145 146 143 140 138 137 134 136 130 131 129
199 197 198 195 200 207 200 190 187 188 195 196 197 197 199 197 193 190 186 183 180 174 172 171 168 164 165 168 162 160 158 159 157 151 152 148 152 151 149 150 149 146 146 145 141 139 140 138 135
206 205 201 203 197 208 191 194 199 204 201 200 202 205 199 201 199 196 195 190 188 183 179 177 174 169 164 163 166 167 165 160 160 163 163 162 161 162 161 159 158 157 156 155 150 146 143 145 143
211 211 203 196 205 208 214 209 217 207 211 208 204 206 204 202 205 205 201 197 193 189 185 182 179 178 174 168 168 170 171 171 172 172 173 173 175 174 171 171 169 168 166 164 162 156 153 153 154
216 213 209 211 215 220 215 225 212 211 213 214 207 208 206 209 213 205 205 200 196 193 190 187 184 183 183 180 176 175 174 174 174 177 179 177 178 179 178 178 175 173 174 175 172 168 164 158 157
206 201 204 214 222 230 219 226 219 214 224 217 214 212 209 212 208 207 201 200 199 197 196 194 191 190 188 189 186 187 187 187 183 184 184 185 186 185 184 184 183 179 179 181 181 179 176 173 172
213 207 214 219 222 228 226 221 237 218 226 222 217 214 209 206 209 204 202 201 202 201 200 199 198 197 194 196 196 195 198 196 194 188 189 190 191 190 189 189 189 191 192 192 192 191 189 189 186
213 219 224 220 223 224 222 231 232 237 238 237 217 209 207 205 206 204 205 204 204 204 204 203 203 203 202 201 202 202 200 200 198 197 196 194 195 193 194 195 197 200 203 201 199 199 201 202 202
212 220 226 219 228 228 226 235 238 239 233 224 211 206 204 202 204 205 208 206 207 207 208 209 207 207 208 207 207 208 206 205 204 203 203 200 198 199 200 199 201 205 206 207 207 209 211 214 215
219 213 217 225 216 226 228 238 238 230 223 215 210 207 201 209 213 211 209 209 210 211 212 212 211 212 212 212 212 210 208 208 212 211 208 205 204 203 203 204 205 207 209 210 212 214 219 222 224
213 218 221 225 230 229 227 233 230 224 221 215 210 207 205 210 209 206 210 210 211 214 216 215 215 215 215 216 216 215 213 212 211 210 215 210 209 206 207 207 209 213 214 216 219 221 223 225 228
222 221 223 227 223 233 241 234 229 229 222 213 208 207 206 206 204 209 216 216 220 220 219 218 219 219 219 218 218 218 218 217 214 215 214 211 212 214 214 218 222 224 225 224 226 226 228 230 232